Zurück zum Katalog

STARLINK-5499

AktivKommunikationVLEO
NORAD 55764·PAYLOAD·🇺🇸 United States

Gestartet Mar 3, 2023 von Vandenberg Space Force Base

Loading…

Nächste Überflüge (nächste 24 Stunden)

TLE

AktuellSource: CelesTrak SupGP

Epoche: Sep 15, 2026, 02:37 UTC

1 55764C 23028Z   26258.10951389 -.00014164  00000+0 -11870-2 0  2585
2 55764  69.9995 106.9964 0002837 274.1720  65.6054 14.98337415    16

Verfolge STARLINK-5499 in Echtzeit mit AllMySat

Download on the App Store